When you browse on this site, cookies collect data to enhance your experience and personalize the content and advertising you see.
Visit our Privacy Policy to learn more. By continuing to use the site, you agree to this use of cookies and data.
  • In Hungary
  • List of Countries
  • For 7 days
  • Water Temperature
  • Weather Map
  • News
  • Weather Widgets
  • user-avatar
    Login

    Hourly Weather Balka

    Today, 18 October, Friday

    Time Temperature Precipitation Wind Pressure Humidity
    00:00 +13°C° 0 mm 3 mps 755 mmHg 72%
    01:00 +13°C° 0 mm 3 mps 755 mmHg 75%
    02:00 +12°C° 0 mm 3 mps 754 mmHg 78%
    03:00 +12°C° 0 mm 3 mps 754 mmHg 80%
    04:00 +11°C° 0 mm 3 mps 754 mmHg 82%
    05:00 +11°C° 0 mm 3 mps 754 mmHg 84%
    06:00 +10°C° 0 mm 2 mps 754 mmHg 86%
    07:00 +11°C° 0 mm 3 mps 754 mmHg 83%
    08:00 +12°C° 0 mm 3 mps 754 mmHg 79%
    09:00 +13°C° 0 mm 3 mps 754 mmHg 75%
    10:00 +16°C° 0 mm 3 mps 754 mmHg 69%
    11:00 +17°C° 0 mm 3 mps 754 mmHg 63%
    12:00 +19°C° 0 mm 3 mps 754 mmHg 57%
    13:00 +19°C° 0 mm 2 mps 754 mmHg 54%
    14:00 +20°C° 0 mm 2 mps 754 mmHg 51%
    15:00 +21°C° 0 mm 2 mps 753 mmHg 49%
    16:00 +20°C° 0 mm 2 mps 753 mmHg 52%
    17:00 +20°C° 0 mm 1 mps 753 mmHg 56%
    18:00 +19°C° 0 mm 1 mps 753 mmHg 60%
    19:00 +18°C° 0 mm 1 mps 753 mmHg 62%
    20:00 +17°C° 0 mm 2 mps 753 mmHg 64%
    21:00 +16°C° 0 mm 2 mps 753 mmHg 66%
    22:00 +16°C° 0 mm 2 mps 754 mmHg 67%
    23:00 +15°C° 0 mm 2 mps 754 mmHg 68%

    Tomorrow, 19 October, Saturday

    Time Temperature Precipitation Wind Pressure Humidity
    00:00 +15°C° 0 mm 2 mps 754 mmHg 68%
    01:00 +14°C° 0 mm 2 mps 754 mmHg 69%
    02:00 +14°C° 0 mm 2 mps 754 mmHg 69%
    03:00 +14°C° 0 mm 2 mps 754 mmHg 69%
    04:00 +13°C° 0 mm 2 mps 754 mmHg 70%
    05:00 +13°C° 0 mm 2 mps 754 mmHg 71%
    06:00 +13°C° 0 mm 2 mps 755 mmHg 72%
    07:00 +13°C° 0 mm 3 mps 755 mmHg 68%
    08:00 +14°C° 0 mm 3 mps 755 mmHg 64%
    09:00 +16°C° 0 mm 3 mps 755 mmHg 60%
    10:00 +17°C° 0 mm 3 mps 756 mmHg 54%
    11:00 +19°C° 0 mm 3 mps 756 mmHg 48%
    12:00 +21°C° 0 mm 3 mps 756 mmHg 42%
    13:00 +21°C° 0 mm 3 mps 756 mmHg 40%
    14:00 +22°C° 0 mm 3 mps 755 mmHg 39%
    15:00 +22°C° 0 mm 3 mps 755 mmHg 37%
    16:00 +21°C° 0 mm 3 mps 755 mmHg 40%
    17:00 +20°C° 0 mm 2 mps 755 mmHg 44%
    18:00 +18°C° 0 mm 2 mps 756 mmHg 47%
    19:00 +18°C° 0 mm 3 mps 756 mmHg 49%
    20:00 +17°C° 0 mm 3 mps 756 mmHg 52%
    21:00 +16°C° 0 mm 3 mps 756 mmHg 54%
    22:00 +16°C° 0 mm 3 mps 757 mmHg 55%
    23:00 +14°C° 0 mm 3 mps 757 mmHg 57%

    Day after tomorrow, 20 October, Sunday

    Time Temperature Precipitation Wind Pressure Humidity
    00:00 +14°C° 0 mm 3 mps 757 mmHg 59%
    01:00 +13°C° 0 mm 3 mps 757 mmHg 60%
    02:00 +13°C° 0 mm 3 mps 757 mmHg 62%
    03:00 +12°C° 0 mm 3 mps 757 mmHg 64%
    04:00 +12°C° 0 mm 3 mps 757 mmHg 65%
    05:00 +12°C° 0 mm 3 mps 758 mmHg 66%
    06:00 +11°C° 0 mm 3 mps 758 mmHg 68%
    07:00 +12°C° 0 mm 3 mps 758 mmHg 65%
    08:00 +13°C° 0 mm 3 mps 758 mmHg 62%
    09:00 +14°C° 0 mm 4 mps 758 mmHg 58%
    10:00 +17°C° 0 mm 4 mps 758 mmHg 53%
    11:00 +19°C° 0 mm 4 mps 758 mmHg 47%
    12:00 +21°C° 0 mm 4 mps 758 mmHg 42%
    13:00 +21°C° 0 mm 4 mps 758 mmHg 41%
    14:00 +22°C° 0 mm 4 mps 758 mmHg 39%
    15:00 +22°C° 0 mm 4 mps 758 mmHg 38%
    16:00 +21°C° 0 mm 4 mps 758 mmHg 42%
    17:00 +19°C° 0 mm 3 mps 758 mmHg 45%
    18:00 +18°C° 0 mm 3 mps 758 mmHg 49%
    19:00 +17°C° 0 mm 3 mps 758 mmHg 51%
    20:00 +17°C° 0 mm 3 mps 758 mmHg 53%
    21:00 +16°C° 0 mm 3 mps 759 mmHg 56%
    22:00 +14°C° 0 mm 3 mps 759 mmHg 58%
    23:00 +14°C° 0 mm 3 mps 759 mmHg 60%

    21 October, Monday

    Time Temperature Precipitation Wind Pressure Humidity
    00:00 +13°C° 0 mm 3 mps 759 mmHg 62%
    01:00 +13°C° 0 mm 3 mps 758 mmHg 64%
    02:00 +12°C° 0 mm 3 mps 758 mmHg 66%
    03:00 +12°C° 0 mm 3 mps 758 mmHg 68%
    04:00 +12°C° 0 mm 3 mps 759 mmHg 69%
    05:00 +11°C° 0 mm 3 mps 759 mmHg 70%
    06:00 +11°C° 0 mm 3 mps 759 mmHg 72%
    07:00 +12°C° 0 mm 3 mps 759 mmHg 69%
    08:00 +13°C° 0 mm 4 mps 759 mmHg 67%
    09:00 +14°C° 0 mm 4 mps 759 mmHg 64%
    10:00 +17°C° 0 mm 4 mps 759 mmHg 57%
    11:00 +18°C° 0 mm 4 mps 759 mmHg 51%
    12:00 +20°C° 0 mm 4 mps 759 mmHg 44%
    13:00 +21°C° 0 mm 4 mps 759 mmHg 42%
    14:00 +21°C° 0 mm 4 mps 759 mmHg 41%
    15:00 +21°C° 0 mm 4 mps 758 mmHg 39%
    16:00 +20°C° 0 mm 3 mps 758 mmHg 43%
    17:00 +19°C° 0 mm 3 mps 758 mmHg 47%
    18:00 +17°C° 0 mm 3 mps 758 mmHg 51%
    19:00 +17°C° 0 mm 3 mps 758 mmHg 54%
    20:00 +16°C° 0 mm 3 mps 758 mmHg 57%
    21:00 +14°C° 0 mm 3 mps 758 mmHg 60%
    22:00 +14°C° 0 mm 3 mps 758 mmHg 63%
    23:00 +13°C° 0 mm 3 mps 758 mmHg 65%

    22 October, Tuesday

    Time Temperature Precipitation Wind Pressure Humidity
    00:00 +12°C° 0 mm 3 mps 758 mmHg 68%
    01:00 +12°C° 0 mm 3 mps 758 mmHg 69%
    02:00 +12°C° 0 mm 2 mps 758 mmHg 71%
    03:00 +12°C° 0 mm 2 mps 758 mmHg 72%
    04:00 +12°C° 0 mm 2 mps 758 mmHg 73%
    05:00 +10°C° 0 mm 2 mps 758 mmHg 74%
    06:00 +10°C° 0 mm 2 mps 758 mmHg 75%
    07:00 +12°C° 0 mm 2 mps 758 mmHg 71%
    08:00 +12°C° 0 mm 3 mps 758 mmHg 67%
    09:00 +12°C° 0 mm 3 mps 758 mmHg 63%
    10:00 +14°C° 0 mm 3 mps 758 mmHg 56%
    11:00 +17°C° 0 mm 3 mps 757 mmHg 50%
    12:00 +18°C° 0 mm 2 mps 757 mmHg 44%
    13:00 +19°C° 0 mm 2 mps 757 mmHg 41%
    14:00 +20°C° 0 mm 2 mps 756 mmHg 39%
    15:00 +20°C° 0 mm 2 mps 756 mmHg 36%
    16:00 +20°C° 0 mm 1 mps 756 mmHg 39%
    17:00 +19°C° 0 mm 1 mps 756 mmHg 42%
    18:00 +18°C° 0 mm 1 mps 755 mmHg 45%
    19:00 +15°C° 0 mm 0 mps 755 mmHg 47%
    20:00 +14°C° 0 mm 0 mps 755 mmHg 49%
    21:00 +14°C° 0 mm 0 mps 755 mmHg 50%
    22:00 +15°C° 0 mm 1 mps 755 mmHg 51%
    23:00 +14°C° 0 mm 1 mps 755 mmHg 53%

    23 October, Wednesday

    Time Temperature Precipitation Wind Pressure Humidity
    00:00 +14°C° 0 mm 1 mps 755 mmHg 54%
    01:00 +14°C° 0 mm 1 mps 755 mmHg 55%
    02:00 +13°C° 0 mm 1 mps 755 mmHg 56%
    03:00 +13°C° 0 mm 1 mps 755 mmHg 58%
    04:00 +13°C° 0 mm 1 mps 756 mmHg 60%
    05:00 +12°C° 0 mm 2 mps 756 mmHg 62%
    06:00 +12°C° 0 mm 2 mps 756 mmHg 64%
    07:00 +12°C° 0 mm 3 mps 756 mmHg 66%
    08:00 +13°C° 0 mm 4 mps 756 mmHg 68%
    09:00 +14°C° 0 mm 4 mps 757 mmHg 69%
    10:00 +15°C° 0 mm 4 mps 757 mmHg 67%
    11:00 +17°C° 0 mm 4 mps 757 mmHg 64%
    12:00 +18°C° 0 mm 4 mps 757 mmHg 61%
    13:00 +18°C° 0 mm 4 mps 757 mmHg 58%
    14:00 +18°C° 0 mm 4 mps 757 mmHg 56%
    15:00 +19°C° 0 mm 4 mps 757 mmHg 53%
    16:00 +18°C° 0 mm 4 mps 757 mmHg 57%
    17:00 +16°C° 0 mm 3 mps 757 mmHg 60%
    18:00 +14°C° 0 mm 3 mps 758 mmHg 63%
    19:00 +14°C° 0 mm 3 mps 758 mmHg 65%
    20:00 +13°C° 0 mm 4 mps 758 mmHg 66%
    21:00 +13°C° 0 mm 4 mps 758 mmHg 68%
    22:00 +12°C° 0 mm 4 mps 758 mmHg 66%
    23:00 +12°C° 0 mm 4 mps 759 mmHg 64%
    Show more